www.pogodaiklimat.ru

Погода и климат >> Архив погоды >> Филиппины >> Тайябас


ПОГОДА в Тайябасе

  • Прогноз погоды в Тайябасе
  • Монитор погоды в Тайябасе

АРХИВ ПОГОДЫ в Тайябасе

Время (UTC), дата Ветер
(напр.,м/с)
 
Видим.   Явления Облачность Т
(С)
Тd
(С)
f
(%)
Тe
(С)
Тes
(С)
Комфортность P
(гПа)
Po
(гПа)
Тmin
(С)
Tmax
(С)
R
(мм)
R24
(мм)
S
(см)
06 19.06 В 1 22 км в посл. час ливневой дождь 8/4 500 м
[Cb calv Ac As]
+31.4 +26.4 75 +48 +54 опасность
перегрева
1007.6 990.0 0.0
09 19.06 СВ 3 20 км осадки на расстоянии {ливн. осадки} 9/5 500 м
[Cb cap Ac As]
+28.8 +24 +24 комфорт 1006.3 988.4 3
12 19.06 С 2 22 км зарница {ливн. осадки} 8/5 500 м
[Cb cap Ac As]
+27.5 +24.2 82 +38 +38 очень
душно
1007.9 990.3 +33.0 3
15 19.06 штиль 0 15 км гроза, ливневой дождь 10/4 500 м
[Cb cap Ac As]
+26.2 +24.9 93 +37 +37 очень
душно
1009.4 991.8 1
18 19.06 штиль 0 18 км зарница {гроза, ливн. осадки} 8/3 500 м
[Cb calv Ac cuf]
+25.8 +24.5 93 +36 +36 очень
душно
1007.6 990.0 1
21 19.06 штиль 0 18 км {гроза} 8/3 540 м
[Cu med, cong Ac cuf]
+25.4 +24.1 93 +35 +35 очень
душно
1008.5 990.8
00 20.06 Ю 1 25 км 6/3 600 м
[Cu med, cong Cs]
+29.0 +26.4 86 +44 +50 опасность
перегрева
1009.1 991.5 +24.5 4
03 20.06 Ю 2 25 км 6/4 600 м
[Cu med, cong Ac As]
+31.4 +27.1 78 +49 +59 опасность
перегрева
1008.6 991.0
06 20.06 ЮВ 3 25 км 8/4 500 м
[Cb cap Ac As]
+32.2 +26.8 73 +50 +54 опасность
перегрева
1006.5 989.0
09 20.06 Ю 1 25 км 8/5 500 м
[Cb cap Ac As]
+29.0 +26.7 87 +45 +46 опасность
перегрева
1007.3 989.7
12 20.06 СЗ 1 25 км 4/3 600 м
[Cu med, cong Ci sp]
+27.8 +24.8 84 +40 +40 очень
душно
1008.0 990.4 +33.5
15 20.06 штиль 0 20 км 4/3 540 м
[Cu med, cong Ac cuf]
+26.3 +24.3 89 +37 +37 очень
душно
1009.0 991.4
18 20.06 штиль 0 20 км 3/3 540 м
[Cu med, cong]
+25.4 +23.5 89 +34 +34 очень
душно
1008.5 990.9
21 20.06 штиль 0 20 км 3/3 540 м
[Cu med, cong]
+25.0 +23.6 92 +34 +34 очень
душно
1007.9 990.2
00 21.06 Ю 1 25 км 6/4 500 м
[Cb calv Cs]
+29.4 +27.0 87 +46 +51 опасность
перегрева
1008.6 991.0 +24.5
03 21.06 ЮВ 1 25 км 8/4 600 м
[Cu med, cong Ac As]
+31.2 +27.2 79 +49 +57 опасность
перегрева
1008.6 991.0
06 21.06 Ю 3 25 км 5/4 500 м
[Cb cap Cs]
+32.4 +26.8 72 +50 +57 опасность
перегрева
1007.2 989.7
09 21.06 Ю 1 25 км 8/3 500 м
[Cb cap Ac trans Cs]
+31.0 +25.7 73 +46 +47 опасность
перегрева
1007.0 989.4
12 21.06 З 2 20 км 6/3 600 м
[Sc Ac As]
+28.2 +26.0 88 +42 +42 опасность
перегрева
1008.3 990.7 +33.5
15 21.06 штиль 0 20 км зарница 4/3 500 м
[Cb calv Ac cuf]
+27.4 +25.6 90 +40 +40 очень
душно
1008.5 991.0
18 21.06 штиль 0 20 км 4/3 540 м
[Cu med, cong Ac cuf]
+26.3 +24.6 90 +37 +37 очень
душно
1006.9 989.4
21 21.06 штиль 0 20 км 4/3 540 м
[Cu med, cong Ac cuf]
+25.3 +24.1 93 +35 +35 очень
душно
1006.6 989.0
00 22.06 Ю 2 25 км 5/3 600 м
[Cu med, cong Cs]
+29.4 +27.0 87 +46 +51 опасность
перегрева
1006.6 989.1 +25.0
03 22.06 ЮЗ 1 25 км 6/4 600 м
[Cu med, cong Ac As]
+32.0 +26.2 71 +48 +59 опасность
перегрева
1007.0 989.5
06 22.06 ЮЗ 2 25 км 6/4 500 м
[Cb cap Ac As]
+32.6 +26.7 71 +50 +57 опасность
перегрева
1004.6 987.1
09 22.06 Ю 1 25 км 8/3 500 м
[Cb cap Ac As Cs]
+31.4 +26.4 75 +48 +49 опасность
перегрева
1004.9 987.4
12 22.06 З 1 20 км 3/3 600 м
[Cu med, cong]
+28.0 +25.0 84 +40 +40 очень
душно
1007.8 990.2 +34.0
15 22.06 штиль 0 20 км 5/3 540 м
[Cu med, cong Ac cuf Cs]
+26.8 +25.0 90 +39 +39 очень
душно
1007.9 990.4
18 22.06 Ю 2 20 км 6/4 540 м
[Cu med, cong Ac trans]
+25.7 +23.7 89 +35 +35 очень
душно
1007.3 989.8
21 22.06 штиль 0 20 км 5/3 540 м
[Cu med, cong Ac As]
+25.0 +23.6 92 +34 +34 очень
душно
1006.8 989.2
00 23.06 штиль 0 20 км 4/3 600 м
[Cu med, cong Cs]
+28.5 +25.3 83 +42 +48 опасность
перегрева
1007.8 990.2 +24.3
03 23.06 Ю 2 25 км 6/4 600 м
[Cu med, cong Ac cuf]
+32.2 +27.2 75 +51 +60 опасность
перегрева
1007.6 990.1
06 23.06 ЮЗ 2 20 км {ливн. осадки} 4/4 500 м
[Cb calv Ac cuf]
+30.2 +26.7 82 +47 +57 опасность
перегрева
1006.4 988.8 3
09 23.06 СВ 1 20 км в посл. час гроза 8/5 500 м
[Cb cap Ac As]
+28.0 +26.1 89 +42 +43 опасность
перегрева
1007.1 989.4
12 23.06 С 2 25 км {гроза} 4/3 600 м
[Cu med, cong Ci sp]
+26.0 +23.6 87 +35 +35 очень
душно
1008.3 990.6 +33.5
15 23.06 СЗ 1 20 км 3/3 600 м
[Cu med, cong]
+25.8 +24.5 93 +36 +36 очень
душно
1009.1 991.5
18 23.06 С 1 20 км 5/3 600 м
[Cu med, cong Cs]
+25.4 +24.1 93 +35 +35 очень
душно
1007.6 990.0
21 23.06 З 2 20 км 6/1 600 м
[Cu med, cong Ac As Ci sp]
+24.8 +23.3 91 +33 +33 очень
душно
1008.2 990.5
00 24.06 ЮЗ 1 25 км мгла {туман} 9/4 600 м
[Cu med, cong Ac As]
+26.0 +24.0 89 +36 +38 очень
душно
1010.0 992.2 +24.0 3
03 24.06 В 1 20 км мгла {туман} 9/4 540 м
[Cb calv Ac As Ci sp]
+30.8 +26.1 76 +46 +55 опасность
перегрева
1009.7 992.1
06 24.06 СЗ 2 20 км слаб. ливневой дождь {туман} 10/5 500 м
[Cb cap Ac und]
+31.0 +26.1 75 +46 +49 опасность
перегрева
1007.2 989.6 0.0
09 24.06 СЗ 1 20 км осадки на расстоянии {гроза, ливн. осадки} 9/5 500 м
[Cb cap Ac As]
+26.0 +24.0 89 +36 +36 очень
душно
1007.6 989.9 11
12 24.06 ЮЗ 1 20 км зарница {гроза, ливн. осадки} 8/3 500 м
[Cb cap Ac As]
+27.0 +25.7 93 +40 +40 очень
душно
1009.2 991.5 11
15 24.06 С 1 20 км зарница {гроза} 8/4 500 м
[Cu Sc Ac As]
+26.2 +25.1 94 +38 +38 очень
душно
1010.0 992.4
18 24.06 Ю 1 20 км в посл. час ливневой дождь {гроза} 10/3 540 м
[Cu med, cong Ac und]
+25.2 +24.1 94 +35 +35 очень
душно
1008.0 980.4 0.4
21 24.06 З 2 22 км 9/1 600 м
[Cu med, cong Ac As]
+24.8 +23.2 91 +33 +33 очень
душно
1008.2 990.4
00 25.06 Ю 1 25 км 9/3 600 м
[Cu med, cong Cs]
+26.4 +25.2 93 +38 +43 очень
душно
1009.2 991.5 +24.0 11
03 25.06 В 2 25 км 6/4 600 м
[Cu med, cong Ac As]
+31.2 +27.2 79 +49 +59 опасность
перегрева
1008.7 991.1
06 25.06 ЮВ 2 25 км 8/4 500 м
[Cb cap Ac As]
+32.0 +27.6 78 +52 +57 опасность
перегрева
1007.6 990.0
09 25.06 Ю 3 18 км 10/3 500 м
[Cb cap Ac und]
+24.8 +23.0 90 +33 +33 очень
душно
1008.2 990.4 3
12 25.06 СВ 1 18 км зарница {гроза, ливн. осадки} 9/5 500 м
[Cb cap Ac As]
+24.0 +22.6 92 +31 +31 очень
душно
1009.7 991.9 +33.0 5
15 25.06 С 1 15 км слаб. ливневой дождь 10/4 500 м
[Cb cap Ac und]
+25.0 +24.2 95 +34 +34 очень
душно
1009.8 992.2 0.4
18 25.06 СЗ 2 18 км {ливн. осадки} 9/4 600 м
[Cu med, cong Ac As]
+24.5 +23.5 94 +33 +33 очень
душно
1007.7 990.1 0.4
21 25.06 СЗ 1 20 км 8/1 600 м
[Cu med, cong Cs]
+24.0 +23.3 96 +32 +32 очень
душно
1007.4 989.6
00 26.06 Ю 2 25 км 5/3 600 м
[Cu med, cong Cs]
+27.0 +25.7 93 +40 +45 очень
душно
1008.3 990.5 +23.5 5

 

Местоположение метеостанции Тайябас (Филиппины): широта 14.03 долгота 121.58 высота над уровнем моря 158 м.

В архиве по умолчанию представлена погода в Тайябасе за последнюю неделю. Архивные данные за месяц целиком и за предыдущие месяцы, начиная с января 2011 года, Вы можете получить, выбрав интересующий диапазон дат из раскрывающегося списка и нажав кнопку "Ввод!".


*Определитесь, кто Вы:
робот инопланетянин человек

Внимание! Время в таблицах - всемирное. Для получения местного времени необходимо прибавить поправку, которая равна 8 ч.

Смотрите также архив погоды в соседних городах и на ближайших метеорологических станциях:

Погода на Алабате (Филиппины) (47 км)
Погода на Амбулонге (Филиппины) (57 км)
Погода в Танае (Филиппины) (58 км)
Погода в Инфанте (Филиппины) (80 км)
Погода в Калапане (Филиппины) (80 км)
Погода в Аэропорту Ninoy Aquino (Филиппины) (83 км)
Погода в Маниле (Филиппины) (89 км)
Погода в Сангли Пойнт (Филиппины) (89 км)
Погода в Научном саду (Филиппины) (91 км)
Погода в Даете (Филиппины) (151 км)

Пояснения к столбцам:

Ветер - указаны скорость ветра в м/с - средняя за 10 мин, порывы в срок и между сроками (в фигурных скобках) и направление, откуда дует ветер: С - северный, СВ - северо-восточный, В - восточный, ЮВ - юго-восточный, Ю - южный, ЮЗ - юго-западный, З - западный, СЗ - северо-западный.
Видимость - горизонтальная дальность видимости в метрах или километрах. При видимости от 1 до 10 км при отсутствии осадков обычно наблюдается дымка, при ухудшении видимости до 1 км и менее - туман. В сухую погоду видимость может ухудшаться дымом, пылью или мглою.
Явления - указаны атмосферные явления, наблюдавшиеся в срок или в последний час перед сроком; фигурными скобками обозначены явления, наблюдавшиеся между сроками (за 1-3 часа до срока); квадратными скобками обозначены град или гололедные отложения с указанием их диаметра в мм.
Облачность - указаны через наклонную черту общая и нижняя облачность в баллах и высота нижней границы облаков в метрах; квадратными скобками обозначены формы облаков: Ci - перистые, Cs - перисто-слоистые, Cc - перисто-кучевые, Ac - высококучевые, As - высокослоистые, Sc - слоисто-кучевые, Ns - слоисто-дождевые, Cu - кучевые, Cb - кучево-дождевые. Подробнее классификацию облаков см. в Атласе облаков (PDF).
T - Температура воздуха - температура, измеренная на высоте 2 м над землей.
Td - Температура точки росы - температура, при понижении до которой содержащийся в воздухе водяной пар достигнет насыщения.
f - Относительная влажность воздуха - влажноcть воздуха, измеренная на высоте 2 м над землей.
Te - Эффективная температура - температура, которую ощущает одетый по сезону человек в тени. Характеристика душности погоды. При расчете учитывается влияние влажности воздуха и скорости ветра на теплоощущения человека.
Tes - Эффективная температура на солнце - температура, которую ощущает человек, с поправкой на солнечный нагрев. Характеристика знойности погоды. Зависит от высоты солнца над горизонтом, облачности и скорости ветра. Ночью, в пасмурную погоду, а также при ветре 12 м/с и более поправка равна нулю.
P - Атмосферное давление - приведенное к уровню моря атмосферное давление.
Po - Атмосферное давление - измеренное на уровне метеостанции атмосферное давление.
Tmin - Минимальная температура - минимум температуры воздуха на высоте 2 м над землей.
Tmax - Максимальная температура - максимум температуры воздуха на высоте 2 м над землей.
R - Количество осадков - Количество выпавших осадков за период времени, мм. При наведении курсора мыши на число - период времени, за который выпало указанное количество осадков.
R24 - Количество осадков - Количество выпавших осадков за 24 часа, мм.
S - Снежный покров - Высота снежного покрова, см. При наведении курсора мыши на число - состояние снежного покрова и степень покрытия местности в баллах.